| time (UTC) | temp F | wind direction | speed MPH | gust MPH | rain 1hr in | rain 24hr in | rain mn in | humidity % | barometer mb |
| 20260506181457 | 81 | 97 | 7.0 | 10.0 | 0.00 | 0.00 | 0.00 | 85 | 1011.6 |
| 20260506180954 | 81 | 139 | 4.0 | 7.0 | 0.00 | 0.00 | 0.00 | 85 | 1011.6 |
| 20260506180450 | 81 | 134 | 4.0 | 7.0 | 0.00 | 0.00 | 0.00 | 83 | 1011.7 |
| 20260506175947 | 82 | 123 | 2.0 | 7.0 | 0.00 | 0.00 | 0.00 | 85 | 1011.8 |
| 20260506175444 | 82 | 147 | 3.0 | 6.0 | 0.00 | 0.00 | 0.00 | 84 | 1012.0 |
| 20260506174940 | 82 | 135 | 3.0 | 8.0 | 0.00 | 0.00 | 0.00 | 84 | 1012.0 |
| 20260506174438 | 83 | 89 | 0.0 | 2.0 | 0.00 | 0.00 | 0.00 | 85 | 1012.2 |
| 20260506173934 | 83 | 175 | 0.0 | 4.0 | 0.00 | 0.00 | 0.00 | 85 | 1011.9 |
| 20260506173432 | 83 | 100 | 1.0 | 3.0 | 0.00 | 0.00 | 0.00 | 85 | 1012.3 |
| 20260506172928 | 82 | 3 | 0.0 | 4.0 | 0.00 | 0.00 | 0.00 | 86 | 1012.3 |
| 20260506172425 | 82 | 104 | 5.0 | 9.0 | 0.00 | 0.00 | 0.00 | 85 | 1012.7 |
| 20260506171917 | 82 | 336 | 0.0 | 2.0 | 0.00 | 0.00 | 0.00 | 87 | 1012.6 |
| 20260506171414 | 81 | 217 | 0.0 | 2.0 | 0.00 | 0.00 | 0.00 | 87 | 1012.7 |
| 20260506170912 | 81 | 352 | 0.0 | 2.0 | 0.00 | 0.00 | 0.00 | 88 | 1012.7 |
| 20260506170407 | 80 | 268 | 1.0 | 4.0 | 0.00 | 0.00 | 0.00 | 88 | 1012.8 |
| 20260506165901 | 80 | 113 | 7.0 | 7.0 | 0.00 | 0.00 | 0.00 | 88 | 1012.8 |
| 20260506165359 | 80 | 196 | 0.0 | 1.0 | 0.00 | 0.00 | 0.00 | 90 | 1012.9 |
| 20260506164855 | 80 | 230 | 0.0 | 1.0 | 0.00 | 0.00 | 0.00 | 90 | 1013.1 |
| 20260506164351 | 80 | 321 | 0.0 | 2.0 | 0.00 | 0.00 | 0.00 | 90 | 1012.9 |
| 20260506163850 | 79 | 252 | 0.0 | 3.0 | 0.00 | 0.00 | 0.00 | 91 | 1012.9 |
| 20260506163344 | 79 | 217 | 0.0 | 2.0 | 0.00 | 0.00 | 0.00 | 91 | 1013.0 |
| 20260506162839 | 79 | 229 | 0.0 | 1.0 | 0.00 | 0.00 | 0.00 | 91 | 1013.0 |
| 20260506162337 | 79 | 31 | 0.0 | 3.0 | 0.00 | 0.00 | 0.00 | 90 | 1012.8 |
| 20260506161834 | 80 | 235 | 0.0 | 1.0 | 0.00 | 0.00 | 0.00 | 91 | 1012.8 |
| 20260506161331 | 79 | 325 | 0.0 | 3.0 | 0.00 | 0.00 | 0.00 | 91 | 1012.6 |
| 20260506160824 | 79 | 256 | 0.0 | 3.0 | 0.00 | 0.00 | 0.00 | 91 | 1012.5 |
| 20260506160320 | 79 | 172 | 0.0 | 1.0 | 0.00 | 0.00 | 0.00 | 91 | 1012.4 |
| 20260506155818 | 79 | 74 | 1.0 | 3.0 | 0.00 | 0.00 | 0.00 | 92 | 1012.3 |
| 20260506155314 | 78 | 213 | 3.0 | 4.0 | 0.00 | 0.00 | 0.00 | 92 | 1012.2 |
| 20260506153427 | 78 | 116 | 4.0 | 6.0 | 0.00 | 0.00 | 0.00 | 92 | 1011.9 |
| 20260506152925 | 78 | 161 | 3.0 | 5.0 | 0.00 | 0.00 | 0.00 | 92 | 1011.9 |
| 20260506152421 | 78 | 165 | 1.0 | 3.0 | 0.00 | 0.00 | 0.00 | 92 | 1011.9 |
| 20260506151920 | 78 | 106 | 2.0 | 4.0 | 0.00 | 0.00 | 0.00 | 92 | 1011.8 |
| 20260506151416 | 78 | 122 | 1.0 | 3.0 | 0.00 | 0.00 | 0.00 | 93 | 1011.9 |
| 20260506150914 | 77 | 101 | 2.0 | 3.0 | 0.00 | 0.00 | 0.00 | 93 | 1011.8 |
| 20260506150410 | 77 | 107 | 3.0 | 4.0 | 0.00 | 0.00 | 0.00 | 93 | 1012.1 |
| 20260506145907 | 77 | 104 | 2.0 | 3.0 | 0.00 | 0.00 | 0.00 | 93 | 1012.1 |
| 20260506145403 | 77 | 117 | 4.0 | 4.0 | 0.00 | 0.00 | 0.00 | 93 | 1011.9 |
| 20260506144901 | 77 | 131 | 2.0 | 3.0 | 0.00 | 0.00 | 0.00 | 94 | 1011.8 |
| 20260506144357 | 77 | 132 | 1.0 | 3.0 | 0.00 | 0.00 | 0.00 | 94 | 1011.6 |
| 20260506143856 | 77 | 113 | 4.0 | 6.0 | 0.00 | 0.00 | 0.00 | 94 | 1011.5 |
| 20260506143353 | 77 | 145 | 2.0 | 4.0 | 0.00 | 0.00 | 0.00 | 94 | 1011.6 |
| 20260506142851 | 77 | 162 | 2.0 | 4.0 | 0.00 | 0.00 | 0.00 | 95 | 1011.5 |
| 20260506142348 | 77 | 160 | 3.0 | 5.0 | 0.00 | 0.00 | 0.00 | 95 | 1011.4 |
| 20260506141846 | 77 | 130 | 0.0 | 2.0 | 0.00 | 0.00 | 0.00 | 95 | 1011.3 |
| 20260506141344 | 76 | 138 | 2.0 | 4.0 | 0.00 | 0.00 | 0.00 | 95 | 1011.0 |
| 20260506140842 | 76 | 121 | 3.0 | 5.0 | 0.00 | 0.00 | 0.00 | 95 | 1011.1 |
| 20260506140339 | 76 | 107 | 3.0 | 5.0 | 0.00 | 0.00 | 0.00 | 96 | 1011.0 |
| 20260506135836 | 76 | 106 | 3.0 | 3.0 | 0.00 | 0.00 | 0.00 | 96 | 1011.1 |
| 20260506135332 | 76 | 99 | 4.0 | 5.0 | 0.00 | 0.00 | 0.00 | 96 | 1010.8 |
| 20260506134828 | 76 | 171 | 1.0 | 3.0 | 0.00 | 0.00 | 0.00 | 96 | 1010.9 |
| 20260506134325 | 76 | 131 | 4.0 | 4.0 | 0.00 | 0.00 | 0.00 | 96 | 1011.0 |
| 20260506133822 | 76 | 125 | 3.0 | 5.0 | 0.00 | 0.00 | 0.00 | 96 | 1010.9 |
| 20260506133319 | 75 | 128 | 3.0 | 5.0 | 0.00 | 0.00 | 0.00 | 96 | 1011.1 |
| 20260506132816 | 75 | 105 | 3.0 | 5.0 | 0.00 | 0.00 | 0.00 | 96 | 1011.2 |
| 20260506132313 | 75 | 163 | 2.0 | 5.0 | 0.00 | 0.00 | 0.00 | 96 | 1011.1 |
| 20260506131811 | 75 | 136 | 3.0 | 4.0 | 0.00 | 0.00 | 0.00 | 96 | 1011.2 |
| 20260506131307 | 75 | 110 | 3.0 | 5.0 | 0.00 | 0.00 | 0.00 | 96 | 1011.2 |
| 20260506130804 | 75 | 162 | 1.0 | 6.0 | 0.00 | 0.00 | 0.00 | 96 | 1011.2 |
| 20260506130301 | 75 | 113 | 3.0 | 4.0 | 0.00 | 0.00 | 0.00 | 96 | 1011.2 |
| 20260506125759 | 75 | 159 | 2.0 | 4.0 | 0.00 | 0.00 | 0.00 | 96 | 1010.9 |
| 20260506125257 | 75 | 115 | 3.0 | 4.0 | 0.00 | 0.00 | 0.00 | 96 | 1011.1 |
| 20260506124755 | 75 | 119 | 3.0 | 4.0 | 0.00 | 0.00 | 0.00 | 96 | 1011.1 |
| 20260506124252 | 75 | 186 | 1.0 | 3.0 | 0.00 | 0.00 | 0.00 | 96 | 1011.1 |
| 20260506123749 | 75 | 170 | 2.0 | 7.0 | 0.00 | 0.00 | 0.00 | 96 | 1011.1 |
| 20260506123248 | 75 | 169 | 5.0 | 6.0 | 0.00 | 0.00 | 0.00 | 96 | 1011.0 |
| 20260506122744 | 75 | 175 | 4.0 | 6.0 | 0.00 | 0.00 | 0.00 | 96 | 1011.1 |
| 20260506122241 | 75 | 169 | 5.0 | 7.0 | 0.00 | 0.00 | 0.00 | 96 | 1011.0 |
| 20260506121740 | 75 | 201 | 4.0 | 6.0 | 0.00 | 0.00 | 0.00 | 96 | 1010.8 |
| 20260506121236 | 75 | 176 | 3.0 | 5.0 | 0.00 | 0.00 | 0.00 | 96 | 1010.8 |
| 20260506120733 | 75 | 163 | 4.0 | 7.0 | 0.00 | 0.00 | 0.00 | 96 | 1010.8 |
| 20260506120231 | 75 | 171 | 3.0 | 5.0 | 0.00 | 0.00 | 0.00 | 96 | 1010.7 |
| 20260506115729 | 75 | 169 | 6.0 | 7.0 | 0.00 | 0.00 | 0.00 | 96 | 1010.8 |
| 20260506115227 | 75 | 186 | 3.0 | 9.0 | 0.00 | 0.00 | 0.00 | 96 | 1010.7 |
| 20260506114724 | 75 | 186 | 4.0 | 8.0 | 0.00 | 0.00 | 0.00 | 96 | 1010.7 |
| 20260506114221 | 75 | 177 | 3.0 | 7.0 | 0.00 | 0.00 | 0.00 | 96 | 1010.6 |
| 20260506113720 | 75 | 162 | 9.0 | 10.0 | 0.00 | 0.00 | 0.00 | 96 | 1010.5 |
| 20260506113217 | 75 | 174 | 8.0 | 11.0 | 0.00 | 0.00 | 0.00 | 96 | 1010.5 |
| 20260506112713 | 75 | 165 | 7.0 | 10.0 | 0.00 | 0.00 | 0.00 | 96 | 1010.5 |
| 20260506112211 | 75 | 182 | 4.0 | 11.0 | 0.00 | 0.00 | 0.00 | 96 | 1010.3 |
| 20260506111708 | 75 | 168 | 7.0 | 12.0 | 0.00 | 0.00 | 0.00 | 96 | 1010.5 |
| 20260506111206 | 75 | 196 | 4.0 | 7.0 | 0.00 | 0.00 | 0.00 | 96 | 1010.2 |
| 20260506110703 | 75 | 188 | 5.0 | 12.0 | 0.00 | 0.00 | 0.00 | 96 | 1010.3 |
| 20260506110201 | 75 | 177 | 4.0 | 9.0 | 0.00 | 0.00 | 0.00 | 96 | 1010.4 |
| 20260506105657 | 75 | 173 | 6.0 | 10.0 | 0.00 | 0.00 | 0.00 | 96 | 1010.3 |
| 20260506105154 | 75 | 173 | 7.0 | 12.0 | 0.00 | 0.00 | 0.00 | 96 | 1010.1 |
| 20260506104652 | 75 | 178 | 10.0 | 13.0 | 0.00 | 0.00 | 0.00 | 96 | 1010.0 |
| 20260506104149 | 75 | 162 | 8.0 | 10.0 | 0.00 | 0.00 | 0.00 | 96 | 1010.2 |
| 20260506103646 | 75 | 193 | 4.0 | 12.0 | 0.00 | 0.00 | 0.00 | 96 | 1010.0 |
| 20260506103143 | 75 | 167 | 6.0 | 13.0 | 0.00 | 0.00 | 0.00 | 96 | 1009.8 |
| 20260506102642 | 75 | 158 | 5.0 | 12.0 | 0.00 | 0.00 | 0.00 | 96 | 1009.7 |
| 20260506102138 | 75 | 185 | 5.0 | 12.0 | 0.00 | 0.00 | 0.00 | 96 | 1009.6 |
| 20260506101635 | 75 | 171 | 9.0 | 15.0 | 0.00 | 0.00 | 0.00 | 96 | 1009.2 |
| 20260506101132 | 75 | 162 | 10.0 | 17.0 | 0.00 | 0.00 | 0.00 | 97 | 1009.4 |
| 20260506100631 | 75 | 177 | 8.0 | 13.0 | 0.00 | 0.00 | 0.00 | 97 | 1009.4 |
| 20260506100128 | 75 | 168 | 10.0 | 15.0 | 0.00 | 0.00 | 0.00 | 97 | 1009.6 |
| 20260506095627 | 75 | 165 | 10.0 | 10.0 | 0.00 | 0.00 | 0.00 | 97 | 1009.6 |
| 20260506095123 | 75 | 189 | 9.0 | 11.0 | 0.00 | 0.00 | 0.00 | 97 | 1009.7 |
| 20260506094620 | 75 | 187 | 8.0 | 11.0 | 0.00 | 0.00 | 0.00 | 97 | 1009.5 |
| 20260506094118 | 75 | 194 | 11.0 | 11.0 | 0.00 | 0.00 | 0.00 | 97 | 1009.6 |
| 20260506093616 | 75 | 185 | 7.0 | 11.0 | 0.00 | 0.00 | 0.00 | 97 | 1009.7 |
| 20260506093113 | 75 | 177 | 7.0 | 11.0 | 0.00 | 0.00 | 0.00 | 97 | 1009.6 |
| 20260506092611 | 75 | 171 | 7.0 | 12.0 | 0.00 | 0.00 | 0.00 | 97 | 1009.5 |
| 20260506092108 | 75 | 161 | 7.0 | 15.0 | 0.00 | 0.00 | 0.00 | 97 | 1009.4 |
| 20260506091606 | 75 | 179 | 9.0 | 14.0 | 0.00 | 0.00 | 0.00 | 97 | 1009.6 |
| 20260506091103 | 75 | 173 | 12.0 | 12.0 | 0.00 | 0.00 | 0.00 | 97 | 1009.4 |
| 20260506090601 | 75 | 166 | 5.0 | 11.0 | 0.00 | 0.00 | 0.00 | 97 | 1009.4 |
| 20260506090057 | 75 | 167 | 6.0 | 12.0 | 0.00 | 0.00 | 0.00 | 97 | 1009.5 |
| 20260506085554 | 75 | 171 | 8.0 | 13.0 | 0.00 | 0.00 | 0.00 | 96 | 1009.5 |
| 20260506085050 | 75 | 162 | 9.0 | 14.0 | 0.00 | 0.00 | 0.00 | 96 | 1009.3 |
| 20260506084547 | 75 | 190 | 7.0 | 15.0 | 0.00 | 0.00 | 0.00 | 96 | 1009.4 |
| 20260506084043 | 75 | 165 | 12.0 | 12.0 | 0.00 | 0.00 | 0.00 | 96 | 1009.5 |
| 20260506083541 | 75 | 164 | 5.0 | 12.0 | 0.00 | 0.00 | 0.00 | 96 | 1009.5 |
| 20260506083038 | 75 | 165 | 5.0 | 11.0 | 0.00 | 0.00 | 0.00 | 96 | 1009.5 |
| 20260506082535 | 75 | 173 | 11.0 | 13.0 | 0.00 | 0.00 | 0.00 | 96 | 1009.6 |
| 20260506082030 | 75 | 188 | 6.0 | 12.0 | 0.00 | 0.00 | 0.00 | 96 | 1009.6 |
| 20260506081529 | 75 | 168 | 8.0 | 13.0 | 0.00 | 0.00 | 0.00 | 96 | 1009.6 |
| 20260506081026 | 75 | 170 | 6.0 | 12.0 | 0.00 | 0.00 | 0.00 | 96 | 1009.5 |
| 20260506080524 | 75 | 182 | 7.0 | 13.0 | 0.00 | 0.00 | 0.00 | 96 | 1009.7 |
| 20260506073507 | 75 | 165 | 9.0 | 15.0 | 0.00 | 0.00 | 0.00 | 95 | 1010.1 |
| 20260506073004 | 75 | 176 | 7.0 | 18.0 | 0.00 | 0.00 | 0.00 | 95 | 1009.8 |
| 20260506072501 | 75 | 173 | 10.0 | 12.0 | 0.00 | 0.00 | 0.00 | 95 | 1010.0 |
| 20260506071959 | 75 | 163 | 9.0 | 12.0 | 0.00 | 0.00 | 0.00 | 95 | 1010.3 |
| 20260506071457 | 75 | 158 | 8.0 | 15.0 | 0.00 | 0.00 | 0.00 | 95 | 1010.3 |
| 20260506070953 | 75 | 169 | 7.0 | 11.0 | 0.00 | 0.00 | 0.00 | 95 | 1010.4 |
| 20260506070450 | 75 | 170 | 9.0 | 12.0 | 0.00 | 0.00 | 0.00 | 95 | 1010.3 |
| 20260506062428 | 75 | 169 | 7.0 | 14.0 | 0.00 | 0.00 | 0.00 | 95 | 1010.6 |
| 20260506061924 | 75 | 174 | 6.0 | 10.0 | 0.00 | 0.00 | 0.00 | 95 | 1010.7 |
| 20260506061420 | 75 | 153 | 5.0 | 10.0 | 0.00 | 0.00 | 0.00 | 95 | 1010.6 |
| 20260506060918 | 75 | 180 | 7.0 | 12.0 | 0.00 | 0.00 | 0.00 | 95 | 1010.5 |
| 20260506060416 | 75 | 174 | 9.0 | 11.0 | 0.00 | 0.00 | 0.00 | 95 | 1010.6 |
| 20260506051348 | 76 | 173 | 9.0 | 11.0 | 0.00 | 0.00 | 0.00 | 94 | 1010.7 |
| 20260506050845 | 76 | 195 | 5.0 | 10.0 | 0.00 | 0.00 | 0.00 | 94 | 1010.8 |
| 20260506050343 | 76 | 167 | 9.0 | 11.0 | 0.00 | 0.00 | 0.00 | 93 | 1010.7 |
| 20260506044833 | 76 | 178 | 5.0 | 10.0 | 0.00 | 0.00 | 0.00 | 93 | 1010.7 |
| 20260506044331 | 76 | 177 | 4.0 | 8.0 | 0.00 | 0.00 | 0.00 | 93 | 1010.7 |
| 20260506043828 | 76 | 193 | 4.0 | 9.0 | 0.00 | 0.00 | 0.00 | 93 | 1010.8 |
| 20260506043325 | 76 | 166 | 6.0 | 13.0 | 0.00 | 0.00 | 0.00 | 93 | 1010.9 |
| 20260506042824 | 76 | 167 | 7.0 | 11.0 | 0.00 | 0.00 | 0.00 | 93 | 1010.6 |
| 20260506042322 | 76 | 167 | 7.0 | 11.0 | 0.00 | 0.00 | 0.00 | 93 | 1010.5 |
| 20260506041821 | 76 | 161 | 5.0 | 9.0 | 0.00 | 0.00 | 0.00 | 92 | 1010.6 |
| 20260506041317 | 76 | 159 | 7.0 | 12.0 | 0.00 | 0.00 | 0.00 | 92 | 1010.3 |
| 20260506040814 | 76 | 185 | 7.0 | 13.0 | 0.00 | 0.00 | 0.00 | 92 | 1010.3 |
| 20260506040312 | 76 | 167 | 5.0 | 11.0 | 0.00 | 0.00 | 0.00 | 92 | 1010.3 |
| 20260506035808 | 76 | 172 | 7.0 | 15.0 | 0.00 | 0.00 | 0.00 | 92 | 1010.1 |
| 20260506035306 | 76 | 166 | 11.0 | 15.0 | 0.00 | 0.00 | 0.00 | 92 | 1010.4 |
| 20260506034803 | 76 | 168 | 9.0 | 11.0 | 0.00 | 0.00 | 0.00 | 92 | 1010.4 |
| 20260506034300 | 76 | 168 | 9.0 | 15.0 | 0.00 | 0.00 | 0.00 | 92 | 1010.3 |
| 20260506033756 | 76 | 180 | 5.0 | 10.0 | 0.00 | 0.00 | 0.00 | 92 | 1010.3 |
| 20260506033253 | 77 | 185 | 10.0 | 13.0 | 0.00 | 0.00 | 0.00 | 92 | 1010.1 |
| 20260506032750 | 77 | 170 | 8.0 | 11.0 | 0.00 | 0.00 | 0.00 | 92 | 1010.0 |
| 20260506032247 | 77 | 177 | 8.0 | 11.0 | 0.00 | 0.00 | 0.00 | 92 | 1010.1 |
| 20260506031744 | 77 | 167 | 5.0 | 11.0 | 0.00 | 0.00 | 0.00 | 91 | 1010.0 |
| 20260506031241 | 77 | 169 | 4.0 | 8.0 | 0.00 | 0.00 | 0.00 | 91 | 1009.9 |
| 20260506030739 | 77 | 171 | 10.0 | 10.0 | 0.00 | 0.00 | 0.00 | 91 | 1009.9 |
| 20260506030237 | 77 | 168 | 6.0 | 13.0 | 0.00 | 0.00 | 0.00 | 91 | 1010.0 |
| 20260506025733 | 77 | 168 | 6.0 | 11.0 | 0.00 | 0.00 | 0.00 | 91 | 1009.9 |
| 20260506025230 | 77 | 174 | 6.0 | 9.0 | 0.00 | 0.00 | 0.00 | 91 | 1009.7 |
| 20260506024727 | 77 | 186 | 4.0 | 11.0 | 0.00 | 0.00 | 0.00 | 91 | 1009.8 |
| 20260506024223 | 77 | 162 | 8.0 | 10.0 | 0.00 | 0.00 | 0.00 | 91 | 1009.7 |
| 20260506023720 | 77 | 169 | 5.0 | 10.0 | 0.00 | 0.00 | 0.00 | 90 | 1009.8 |
| 20260506023217 | 77 | 165 | 10.0 | 15.0 | 0.00 | 0.00 | 0.00 | 90 | 1009.7 |
| 20260506022714 | 77 | 165 | 7.0 | 10.0 | 0.00 | 0.00 | 0.00 | 90 | 1009.4 |
| 20260506022211 | 77 | 193 | 4.0 | 12.0 | 0.00 | 0.00 | 0.00 | 90 | 1009.4 |
| 20260506021709 | 77 | 163 | 9.0 | 12.0 | 0.00 | 0.00 | 0.00 | 90 | 1009.3 |
| 20260506021206 | 77 | 161 | 5.0 | 10.0 | 0.00 | 0.00 | 0.00 | 90 | 1009.4 |
| 20260506020703 | 77 | 170 | 5.0 | 9.0 | 0.00 | 0.00 | 0.00 | 90 | 1009.3 |
| 20260506020201 | 77 | 175 | 8.0 | 8.0 | 0.00 | 0.00 | 0.00 | 89 | 1009.3 |
| 20260506015658 | 77 | 176 | 4.0 | 11.0 | 0.00 | 0.00 | 0.00 | 89 | 1008.9 |
| 20260506015155 | 77 | 177 | 5.0 | 11.0 | 0.00 | 0.00 | 0.00 | 89 | 1009.3 |
| 20260506014652 | 77 | 172 | 4.0 | 9.0 | 0.00 | 0.00 | 0.00 | 89 | 1008.9 |
| 20260506014148 | 77 | 168 | 5.0 | 11.0 | 0.00 | 0.00 | 0.00 | 89 | 1008.7 |
| 20260506013646 | 77 | 176 | 5.0 | 9.0 | 0.00 | 0.00 | 0.00 | 89 | 1008.8 |
| 20260506013143 | 77 | 180 | 7.0 | 13.0 | 0.00 | 0.00 | 0.00 | 88 | 1008.6 |
| 20260506012639 | 78 | 175 | 5.0 | 9.0 | 0.00 | 0.00 | 0.00 | 88 | 1008.6 |
| 20260506012136 | 78 | 152 | 7.0 | 11.0 | 0.00 | 0.00 | 0.00 | 88 | 1008.4 |
| 20260506011633 | 78 | 163 | 9.0 | 14.0 | 0.00 | 0.00 | 0.00 | 88 | 1008.5 |
| 20260506011129 | 78 | 172 | 3.0 | 7.0 | 0.00 | 0.00 | 0.00 | 87 | 1008.3 |
| 20260506010628 | 78 | 166 | 7.0 | 9.0 | 0.00 | 0.00 | 0.00 | 87 | 1008.4 |
| 20260506010125 | 78 | 163 | 7.0 | 11.0 | 0.00 | 0.00 | 0.00 | 87 | 1008.4 |
| 20260506005622 | 78 | 157 | 9.0 | 13.0 | 0.00 | 0.00 | 0.00 | 86 | 1008.3 |
| 20260506005118 | 78 | 174 | 6.0 | 13.0 | 0.00 | 0.00 | 0.00 | 86 | 1008.2 |
| 20260506004615 | 78 | 169 | 5.0 | 14.0 | 0.00 | 0.00 | 0.00 | 86 | 1008.0 |
| 20260506004112 | 78 | 162 | 11.0 | 11.0 | 0.00 | 0.00 | 0.00 | 86 | 1008.0 |
| 20260506003609 | 78 | 164 | 8.0 | 15.0 | 0.00 | 0.00 | 0.00 | 85 | 1007.8 |
| 20260506003105 | 78 | 174 | 7.0 | 11.0 | 0.00 | 0.00 | 0.00 | 86 | 1007.9 |
| 20260506002600 | 79 | 163 | 8.0 | 17.0 | 0.00 | 0.00 | 0.00 | 85 | 1007.9 |
| 20260506002057 | 79 | 170 | 4.0 | 9.0 | 0.00 | 0.00 | 0.00 | 85 | 1008.0 |
| 20260506001553 | 79 | 151 | 10.0 | 12.0 | 0.00 | 0.00 | 0.00 | 85 | 1008.0 |
| 20260506001050 | 79 | 171 | 9.0 | 14.0 | 0.00 | 0.00 | 0.00 | 85 | 1008.0 |
| 20260506000547 | 79 | 184 | 12.0 | 20.0 | 0.00 | 0.00 | 0.00 | 84 | 1008.0 |
| 20260506000045 | 79 | 192 | 6.0 | 14.0 | 0.00 | 0.00 | 0.00 | 85 | 1008.1 |
| 20260505235543 | 79 | 171 | 6.0 | 13.0 | 0.00 | 0.00 | 0.00 | 84 | 1007.9 |
| 20260505235040 | 80 | 185 | 7.0 | 11.0 | 0.00 | 0.00 | 0.00 | 84 | 1007.8 |
| 20260505234536 | 80 | 181 | 10.0 | 14.0 | 0.00 | 0.00 | 0.00 | 84 | 1007.7 |
| 20260505234033 | 80 | 186 | 6.0 | 15.0 | 0.00 | 0.00 | 0.00 | 84 | 1007.6 |
| 20260505233531 | 80 | 172 | 7.0 | 14.0 | 0.00 | 0.00 | 0.00 | 84 | 1007.5 |
| 20260505233028 | 80 | 167 | 13.0 | 17.0 | 0.00 | 0.00 | 0.00 | 83 | 1007.7 |
| 20260505232526 | 80 | 170 | 12.0 | 16.0 | 0.00 | 0.00 | 0.00 | 83 | 1008.0 |
| 20260505232023 | 80 | 161 | 7.0 | 10.0 | 0.00 | 0.00 | 0.00 | 84 | 1007.7 |
| 20260505231520 | 80 | 164 | 7.0 | 12.0 | 0.00 | 0.00 | 0.00 | 83 | 1007.7 |
| 20260505231019 | 81 | 168 | 6.0 | 15.0 | 0.00 | 0.00 | 0.00 | 82 | 1007.6 |
| 20260505230516 | 81 | 170 | 10.0 | 17.0 | 0.00 | 0.00 | 0.00 | 81 | 1007.5 |
| 20260505230012 | 81 | 171 | 11.0 | 17.0 | 0.00 | 0.00 | 0.00 | 82 | 1007.7 |
| 20260505225509 | 81 | 154 | 6.0 | 17.0 | 0.00 | 0.00 | 0.00 | 82 | 1007.5 |
| 20260505225005 | 80 | 171 | 8.0 | 18.0 | 0.00 | 0.00 | 0.00 | 82 | 1007.6 |
| 20260505224502 | 81 | 155 | 9.0 | 17.0 | 0.00 | 0.00 | 0.00 | 82 | 1007.7 |
| 20260505223959 | 81 | 174 | 10.0 | 20.0 | 0.00 | 0.00 | 0.00 | 81 | 1007.6 |
| 20260505223456 | 81 | 189 | 10.0 | 15.0 | 0.00 | 0.00 | 0.00 | 81 | 1007.6 |
| 20260505222952 | 81 | 173 | 5.0 | 18.0 | 0.00 | 0.00 | 0.00 | 81 | 1007.9 |
| 20260505222449 | 82 | 180 | 9.0 | 19.0 | 0.00 | 0.00 | 0.00 | 81 | 1007.9 |
| 20260505221944 | 82 | 151 | 6.0 | 15.0 | 0.00 | 0.00 | 0.00 | 81 | 1007.7 |
| 20260505221442 | 82 | 167 | 11.0 | 16.0 | 0.00 | 0.00 | 0.00 | 80 | 1007.8 |
| 20260505220939 | 82 | 165 | 9.0 | 16.0 | 0.00 | 0.00 | 0.00 | 81 | 1007.8 |
| 20260505220436 | 82 | 170 | 16.0 | 19.0 | 0.00 | 0.00 | 0.00 | 79 | 1007.7 |
| 20260505215933 | 83 | 172 | 6.0 | 15.0 | 0.00 | 0.00 | 0.00 | 79 | 1008.1 |
| 20260505215431 | 83 | 166 | 12.0 | 16.0 | 0.00 | 0.00 | 0.00 | 80 | 1007.8 |
| 20260505214929 | 82 | 196 | 11.0 | 18.0 | 0.00 | 0.00 | 0.00 | 79 | 1007.8 |
| 20260505214427 | 82 | 169 | 11.0 | 17.0 | 0.00 | 0.00 | 0.00 | 79 | 1007.8 |
| 20260505213924 | 82 | 166 | 12.0 | 16.0 | 0.00 | 0.00 | 0.00 | 79 | 1007.9 |
| 20260505213421 | 82 | 171 | 10.0 | 15.0 | 0.00 | 0.00 | 0.00 | 80 | 1008.2 |
| 20260505212917 | 83 | 165 | 9.0 | 17.0 | 0.00 | 0.00 | 0.00 | 80 | 1008.2 |
| 20260505212414 | 82 | 171 | 12.0 | 15.0 | 0.00 | 0.00 | 0.00 | 80 | 1008.2 |
| 20260505211911 | 83 | 188 | 5.0 | 15.0 | 0.00 | 0.00 | 0.00 | 80 | 1008.1 |
| 20260505211409 | 82 | 163 | 7.0 | 18.0 | 0.00 | 0.00 | 0.00 | 79 | 1008.3 |
| 20260505210904 | 82 | 148 | 7.0 | 18.0 | 0.00 | 0.00 | 0.00 | 80 | 1008.2 |
| 20260505210402 | 83 | 167 | 10.0 | 18.0 | 0.00 | 0.00 | 0.00 | 80 | 1008.3 |
| 20260505205858 | 83 | 170 | 8.0 | 18.0 | 0.00 | 0.00 | 0.00 | 79 | 1008.5 |
| 20260505205357 | 84 | 183 | 8.0 | 17.0 | 0.00 | 0.00 | 0.00 | 77 | 1008.4 |
| 20260505204853 | 84 | 211 | 14.0 | 21.0 | 0.00 | 0.00 | 0.00 | 76 | 1008.5 |
| 20260505204351 | 84 | 166 | 9.0 | 15.0 | 0.00 | 0.00 | 0.00 | 76 | 1008.7 |
| 20260505203848 | 84 | 180 | 8.0 | 17.0 | 0.00 | 0.00 | 0.00 | 77 | 1008.8 |
| 20260505203344 | 84 | 170 | 9.0 | 21.0 | 0.00 | 0.00 | 0.00 | 76 | 1008.8 |
| 20260505202841 | 84 | 187 | 11.0 | 20.0 | 0.00 | 0.00 | 0.00 | 75 | 1008.8 |
| 20260505202337 | 83 | 201 | 12.0 | 20.0 | 0.00 | 0.00 | 0.00 | 76 | 1009.0 |
| 20260505201834 | 84 | 171 | 9.0 | 16.0 | 0.00 | 0.00 | 0.00 | 77 | 1009.0 |
| 20260505201331 | 84 | 203 | 11.0 | 14.0 | 0.00 | 0.00 | 0.00 | 78 | 1009.0 |
| 20260505200830 | 84 | 176 | 7.0 | 18.0 | 0.00 | 0.00 | 0.00 | 76 | 1009.2 |
| 20260505200326 | 84 | 203 | 15.0 | 20.0 | 0.00 | 0.00 | 0.00 | 76 | 1009.0 |
| 20260505195822 | 84 | 192 | 7.0 | 22.0 | 0.00 | 0.00 | 0.00 | 78 | 1009.0 |
| 20260505195319 | 83 | 166 | 16.0 | 22.0 | 0.00 | 0.00 | 0.00 | 77 | 1009.5 |
| 20260505194816 | 83 | 199 | 9.0 | 17.0 | 0.00 | 0.00 | 0.00 | 78 | 1009.5 |
| 20260505194313 | 83 | 204 | 12.0 | 17.0 | 0.00 | 0.00 | 0.00 | 78 | 1009.4 |
| 20260505193808 | 82 | 181 | 4.0 | 20.0 | 0.00 | 0.00 | 0.00 | 78 | 1009.7 |
| 20260505193307 | 82 | 197 | 10.0 | 16.0 | 0.00 | 0.00 | 0.00 | 79 | 1009.7 |
| 20260505192805 | 82 | 187 | 11.0 | 22.0 | 0.00 | 0.00 | 0.00 | 79 | 1009.8 |
| 20260505192305 | 83 | 162 | 12.0 | 14.0 | 0.00 | 0.00 | 0.00 | 81 | 1009.8 |
| 20260505191800 | 82 | 136 | 11.0 | 15.0 | 0.00 | 0.00 | 0.00 | 82 | 1009.8 |
| 20260505191258 | 82 | 201 | 6.0 | 13.0 | 0.00 | 0.00 | 0.00 | 81 | 1009.9 |
| 20260505190754 | 83 | 193 | 11.0 | 14.0 | 0.00 | 0.00 | 0.00 | 79 | 1010.0 |
| 20260505190249 | 83 | 186 | 7.0 | 11.0 | 0.00 | 0.00 | 0.00 | 81 | 1009.9 |
| 20260505185746 | 83 | 209 | 8.0 | 14.0 | 0.00 | 0.00 | 0.00 | 81 | 1009.8 |
| 20260505185242 | 82 | 215 | 8.0 | 12.0 | 0.00 | 0.00 | 0.00 | 83 | 1010.0 |
| 20260505184738 | 81 | 215 | 13.0 | 15.0 | 0.00 | 0.00 | 0.00 | 82 | 1010.2 |
| 20260505184236 | 81 | 192 | 5.0 | 13.0 | 0.00 | 0.00 | 0.00 | 82 | 1010.4 |
| 20260505183732 | 80 | 170 | 7.0 | 14.0 | 0.00 | 0.00 | 0.00 | 82 | 1010.3 |
| 20260505183230 | 82 | 174 | 10.0 | 17.0 | 0.00 | 0.00 | 0.00 | 81 | 1010.2 |
| 20260505182726 | 82 | 164 | 6.0 | 18.0 | 0.00 | 0.00 | 0.00 | 82 | 1010.1 |
| 20260505182223 | 81 | 196 | 9.0 | 14.0 | 0.00 | 0.00 | 0.00 | 82 | 1010.2 |